RH
34 35 36 38 40 41 38 35 34 34 33 32 30 29 28 28 29 28 30 32 33 33 32 31 30 29 31 33 36 37 36 39 44 45 45 45 49 58 69 77 80 83 85 86 88 87 84 83 84 85 84 81 78 73 69 67 66 64 62 60 57 55 53 51 50 49 49 46 41 38 37 37 37 38 37 34 32 33 33 31 30 30 30 30 29
40 41 42 43 45 46 46 43 41 39 36 33 32 31 30 29 28 26 26 28 30 31 30 29 29 27 26 27 30 34 35 36 39 43 47 48 47 47 53 63 72 79 84 86 88 89 89 88 89 91 92 90 85 81 76 72 70 68 65 63 60 58 56 55 55 53 49 43 40 42 43 41 39 39 39 36 34 33 32 31 31 30 31 30 30
46 46 48 49 48 46 47 45 42 39 36 34 34 34 34 31 28 25 25 27 28 29 30 30 29 27 27 26 27 30 32 33 33 33 38 45 50 50 48 52 60 68 76 83 87 89 91 91 91 92 94 96 94 89 85 81 77 73 70 66 63 61 60 59 58 56 53 50 48 47 44 43 44 42 40 38 36 34 34 33 31 30 30 30 29
51 51 52 52 50 47 44 42 39 38 38 38 39 39 39 34 28 25 26 26 28 32 37 41 40 37 35 34 32 31 30 31 32 30 30 36 45 52 53 53 55 59 67 76 83 86 88 90 92 93 93 96 97 94 91 89 87 82 77 72 68 64 62 62 60 59 59 58 53 48 47 49 46 39 39 43 44 43 39 34 31 29 29 29 28
56 55 54 51 48 46 44 43 42 41 42 42 42 41 38 32 27 26 25 27 35 44 47 49 49 45 41 39 38 37 34 33 35 35 34 35 39 48 54 55 55 56 60 68 77 83 87 88 90 92 94 94 96 97 95 94 93 90 85 82 78 73 68 67 65 63 62 60 58 55 53 48 42 39 44 49 51 48 42 35 31 29 28 28 29
59 56 53 51 49 47 47 46 44 43 42 40 40 40 36 31 27 27 28 33 42 50 51 50 51 49 46 44 43 43 41 39 39 40 41 41 40 44 49 52 55 56 57 62 69 77 85 88 89 89 92 94 95 96 96 96 97 94 92 89 86 82 79 78 73 67 65 63 62 60 56 51 47 49 52 51 51 51 45 38 33 31 29 30 30
58 55 53 53 52 51 50 47 44 43 42 40 41 42 37 32 30 31 34 35 39 46 51 54 55 56 55 53 52 50 47 43 42 43 45 45 44 44 46 49 53 54 55 58 62 69 78 86 90 89 89 91 94 97 96 95 95 95 96 94 90 87 85 85 80 74 71 68 64 61 61 61 56 53 53 50 51 52 48 43 38 33 31 31 31
60 58 56 55 54 52 49 46 41 40 43 45 49 47 40 35 37 39 38 37 43 51 56 59 61 62 61 61 59 55 51 47 45 45 46 47 46 44 45 48 51 53 53 54 58 64 71 79 87 91 90 90 91 94 96 95 94 94 95 95 93 90 88 86 84 82 78 72 69 67 67 67 63 58 57 55 54 53 50 47 42 36 33 33 33
63 61 57 54 52 49 46 43 39 39 45 47 48 47 43 43 47 47 45 47 56 61 62 66 68 67 64 63 61 56 52 50 49 49 48 49 50 49 47 47 49 53 56 57 56 60 66 73 82 87 90 91 90 91 94 95 96 94 94 95 95 93 92 90 87 87 85 79 77 76 73 71 69 67 65 62 58 55 52 50 47 41 36 34 34
60 58 55 53 50 48 45 42 39 41 46 47 47 49 51 53 56 56 57 64 72 73 73 77 78 74 72 70 67 62 60 58 55 53 52 52 53 51 50 49 48 51 56 61 61 59 61 68 78 85 88 91 91 91 93 95 97 96 95 95 94 94 94 93 90 90 89 86 85 84 79 74 72 71 68 65 61 59 56 55 53 47 40 37 36
55 54 53 53 51 47 42 37 38 44 49 52 54 57 60 62 65 68 74 80 85 84 82 83 84 82 80 80 78 74 72 70 65 60 57 57 55 54 54 54 53 51 51 58 63 63 62 62 67 77 87 92 92 90 91 94 96 98 98 97 95 94 94 95 94 92 91 89 87 87 84 79 75 72 71 70 67 64 60 59 58 52 45 42 41
54 54 52 49 44 40 38 36 40 48 54 59 62 63 66 71 76 83 88 88 88 87 85 86 86 85 86 88 86 83 81 80 76 71 68 66 63 60 59 57 57 55 53 56 60 63 65 61 58 63 73 86 94 94 91 92 94 97 99 100 98 97 96 96 96 95 93 92 90 89 87 84 81 76 75 75 73 70 66 65 64 60 53 48 46
53 50 43 38 37 40 43 41 45 54 61 65 67 69 73 79 85 89 90 88 87 85 85 87 87 86 89 92 91 89 88 86 83 80 78 76 74 70 66 63 61 59 59 59 59 60 62 60 57 57 60 69 84 94 94 93 94 94 97 99 99 99 99 98 97 96 95 95 94 93 91 89 87 83 80 77 75 76 74 70 67 64 59 55 51
39 37 35 37 42 47 48 46 52 63 67 69 72 76 81 85 90 89 87 86 84 83 84 87 88 88 89 92 92 92 90 90 90 88 86 84 81 78 74 71 66 61 59 59 58 58 59 58 56 56 57 60 68 82 91 94 95 95 95 97 98 98 99 100 99 97 97 96 95 95 94 92 90 89 86 80 78 80 80 75 71 67 63 60 55
33 36 42 46 48 50 53 56 65 71 71 72 75 79 83 87 90 90 87 85 84 84 85 84 86 89 91 92 93 93 93 92 93 94 94 92 89 85 79 75 71 66 63 61 59 58 57 59 60 58 59 61 63 70 79 88 94 98 98 98 97 97 98 100 100 99 98 98 97 97 97 95 93 92 90 87 84 84 83 81 77 73 68 64 59
41 45 48 48 47 52 59 65 70 73 73 73 75 80 86 89 90 89 86 85 85 85 83 82 83 86 90 91 90 91 92 92 93 95 97 96 95 91 85 81 77 72 71 67 62 60 58 57 59 59 59 62 66 70 74 79 86 94 99 100 98 97 98 99 99 100 99 98 99 99 98 96 94 93 92 91 89 88 87 86 83 79 74 69 65
46 49 50 51 54 59 64 67 69 71 74 75 77 83 88 89 89 88 87 86 85 85 85 85 85 86 90 91 89 88 89 92 95 96 97 96 94 92 89 88 85 81 79 75 68 64 61 56 55 57 59 61 68 75 76 76 79 85 92 97 99 99 98 98 98 99 99 99 98 99 99 97 96 94 92 91 91 91 91 90 87 84 80 76 72
49 51 53 57 65 71 71 71 72 73 77 80 82 85 86 86 89 90 90 88 86 87 87 84 83 85 88 90 91 90 89 92 95 96 95 93 91 91 90 91 92 88 85 83 76 69 65 61 56 55 56 57 62 72 79 79 77 77 81 88 94 98 99 98 97 97 97 97 98 98 99 98 97 95 92 90 90 90 92 92 91 89 86 81 76
51 52 57 64 73 80 78 76 78 79 82 83 82 83 82 85 90 93 92 89 87 88 86 81 81 82 83 86 89 90 89 90 92 92 92 90 90 93 94 95 96 93 90 87 84 77 71 67 63 58 55 54 55 63 75 80 78 75 73 75 81 87 93 95 96 97 97 98 98 98 99 99 98 97 94 92 91 90 90 92 93 92 90 84 79
50 52 59 66 74 80 81 81 83 85 86 83 81 82 83 85 90 93 93 90 88 87 85 84 84 84 84 84 84 84 84 85 87 88 89 88 89 92 96 98 97 94 93 90 87 85 80 74 71 65 59 57 56 57 64 72 78 78 75 72 71 73 77 82 86 90 94 97 98 98 98 99 99 99 98 96 94 92 92 92 93 94 93 89 86
45 51 60 67 71 76 81 85 87 88 88 85 82 83 85 85 87 90 91 90 88 86 85 87 87 86 88 89 88 84 80 79 81 83 86 86 87 89 92 96 97 95 95 92 90 90 87 81 77 73 67 62 59 58 59 63 68 73 75 76 75 73 71 70 74 79 84 88 92 94 95 95 96 98 98 98 98 96 94 93 93 94 94 93 91
43 53 62 67 68 71 77 83 88 89 87 85 84 85 88 89 88 88 89 87 86 85 85 87 87 86 89 93 94 89 83 81 79 79 81 84 87 88 88 91 96 95 94 92 91 90 90 86 82 79 76 71 67 64 63 61 61 64 67 70 73 74 73 70 70 73 76 80 83 86 89 91 92 94 94 95 97 98 97 96 93 93 94 95 95
46 56 64 68 68 70 74 80 86 87 86 85 85 87 91 92 90 89 88 85 83 83 84 86 85 84 88 94 95 92 88 88 86 84 84 86 89 90 88 90 96 96 94 92 92 91 90 89 86 81 79 79 78 74 69 65 63 61 60 62 65 67 69 70 70 69 70 73 76 78 80 83 87 90 91 92 93 93 95 95 94 94 94 95 95
50 60 67 70 73 75 77 81 85 87 86 86 87 89 91 92 92 91 89 86 84 83 83 85 85 83 85 89 91 89 89 91 92 92 91 90 91 94 92 92 95 96 94 92 91 91 90 89 88 86 83 82 82 80 75 69 63 60 57 57 59 61 62 64 67 68 69 71 72 72 72 75 79 82 85 88 90 91 91 91 92 94 95 95 94
57 66 71 76 81 83 82 82 84 85 86 87 88 90 91 90 91 91 91 88 87 85 84 84 87 87 85 85 85 85 87 90 92 93 94 94 93 94 96 95 93 92 92 91 89 88 88 87 86 87 87 83 82 82 80 74 68 62 57 56 56 57 57 58 60 64 66 68 69 69 68 70 72 75 78 81 85 87 88 89 90 91 93 94 95
68 75 81 85 87 86 85 85 84 84 87 88 88 89 89 88 89 90 91 89 87 85 84 84 86 85 81 80 82 83 84 88 92 93 95 96 94 93 94 94 93 91 90 90 89 88 87 86 86 88 89 87 84 84 83 81 77 70 63 59 57 55 54 54 55 56 58 60 63 64 65 66 67 69 72 76 80 83 85 86 88 90 91 93 94
78 84 88 89 89 88 87 86 86 86 88 88 87 88 88 87 87 88 89 88 85 84 82 82 81 80 77 77 80 81 83 88 93 94 94 94 92 91 90 90 91 90 88 87 88 88 87 87 89 90 91 90 89 90 89 87 86 81 73 66 63 59 55 52 50 50 49 50 51 53 57 60 62 62 64 69 74 79 82 83 85 88 91 93 93
81 85 87 87 87 86 85 86 86 86 86 85 86 87 88 87 86 85 85 86 84 82 80 79 79 78 78 78 80 82 86 90 92 94 93 91 88 87 87 87 87 88 89 89 89 89 89 90 91 92 94 94 92 93 92 90 88 86 81 76 72 68 62 56 53 49 47 45 45 45 47 50 54 55 56 59 64 70 76 81 82 84 87 92 93
83 85 87 87 87 85 85 86 86 87 88 88 88 88 87 87 87 86 86 85 84 81 80 82 82 80 80 82 83 84 86 87 86 88 89 88 87 87 86 86 86 85 87 89 90 91 92 93 94 95 97 97 95 94 93 90 88 86 83 78 74 71 68 64 62 60 57 55 52 48 46 46 48 49 49 51 53 57 63 71 77 79 81 85 90
85 87 88 89 90 90 90 90 92 95 96 94 92 90 88 87 87 87 87 86 86 84 84 87 89 89 88 89 88 86 82 81 81 83 86 88 89 88 86 86 85 84 84 86 88 91 92 94 95 95 96 96 97 96 94 92 88 85 81 76 71 71 70 69 68 68 66 64 62 59 54 51 50 50 48 48 49 50 52 56 62 70 74 78 83
83 88 91 91 92 92 94 96 97 98 98 96 93 91 91 90 88 86 86 86 87 88 88 91 94 96 96 92 88 84 81 80 81 83 87 91 90 88 84 82 82 85 87 87 88 89 90 91 92 90 90 93 95 96 97 96 92 87 82 77 72 70 70 69 69 68 66 63 63 61 58 55 54 53 51 51 52 52 50 49 51 56 65 71 78
84 88 91 93 93 94 97 98 97 97 98 97 95 92 90 89 86 84 85 87 89 90 89 89 91 96 98 93 87 86 85 84 84 85 89 92 91 88 85 84 85 87 87 87 88 88 87 87 87 88 90 93 94 95 96 96 92 87 83 79 76 73 71 70 68 65 62 60 58 57 56 56 55 55 56 56 56 56 54 52 50 50 57 68 76
87 90 92 92 92 95 100 100 99 99 99 96 95 92 87 84 85 85 85 87 89 89 89 88 87 90 94 93 91 91 90 88 86 88 90 91 91 90 90 90 89 88 88 87 87 88 89 89 91 93 95 95 95 95 94 90 85 81 78 76 75 71 68 66 64 62 60 59 59 60 59 57 56 59 62 61 58 57 56 56 53 49 53 66 78
90 91 92 93 95 97 100 102 101 100 97 94 94 95 90 87 90 90 88 89 90 89 90 89 87 87 91 93 94 95 93 90 90 92 92 92 94 95 95 94 93 92 92 92 93 94 97 99 100 100 99 98 95 92 87 80 75 73 73 74 73 70 67 65 64 63 62 61 61 62 62 60 60 62 65 64 61 59 58 58 57 52 50 59 75
90 88 87 90 97 99 98 99 100 97 94 94 96 96 93 92 95 95 91 91 93 92 92 90 88 89 91 93 96 98 96 94 95 96 96 96 98 99 99 99 98 98 96 96 97 99 99 100 100 98 96 93 87 81 77 73 70 71 72 73 73 72 70 69 66 63 62 62 64 66 67 66 65 65 66 67 64 62 63 63 61 57 51 56 71
93 93 90 88 94 99 98 97 99 96 93 95 99 97 95 96 98 97 95 95 95 94 94 92 90 91 93 94 98 101 99 96 97 98 98 99 100 102 102 101 99 99 97 96 98 100 99 99 97 94 91 84 78 74 71 67 65 66 67 67 66 65 65 65 63 62 62 65 69 73 77 76 74 73 75 75 71 67 66 67 67 63 58 59 68
89 91 90 86 89 97 100 97 99 98 94 96 99 97 96 98 98 97 96 96 96 94 93 92 92 93 96 97 100 102 100 97 97 99 100 100 101 101 102 101 99 98 97 96 95 95 94 91 87 82 77 71 66 65 64 62 61 62 65 66 65 63 62 61 62 64 66 69 71 76 83 85 86 87 87 86 82 73 67 68 70 69 65 64 70
86 83 81 81 85 94 100 100 99 99 95 95 97 95 94 96 97 97 97 96 96 95 94 93 94 97 99 100 102 101 98 97 98 100 101 100 100 100 100 98 94 90 87 83 80 78 77 74 71 68 66 62 60 62 63 64 64 67 71 72 70 69 66 63 63 65 69 70 71 76 85 90 92 95 97 96 91 81 71 69 72 72 67 66 73
84 78 75 78 83 91 98 100 99 99 97 95 95 94 93 94 96 97 96 96 97 97 97 97 98 99 101 102 102 98 96 98 100 101 100 100 100 97 92 86 79 74 71 69 67 66 66 66 67 67 68 67 67 69 73 76 79 82 83 81 79 76 72 67 65 68 71 72 72 77 87 92 94 98 100 100 95 86 75 70 73 73 67 67 78
75 72 73 78 83 91 98 99 99 99 97 95 95 94 92 93 97 97 96 96 97 98 99 99 99 100 101 102 99 97 98 100 101 100 100 97 91 85 78 72 69 67 65 64 65 67 67 68 70 72 76 79 80 82 86 89 92 94 92 88 84 79 73 71 71 73 73 74 77 85 91 95 98 100 100 98 93 87 80 75 74 71 68 73 84
72 70 74 78 82 92 100 100 99 99 98 97 97 95 93 94 97 98 98 99 99 99 100 100 100 101 102 101 98 97 100 102 101 98 93 84 78 74 71 69 67 66 68 71 76 78 77 77 79 83 87 90 91 92 93 92 91 90 88 86 81 75 72 73 75 76 75 78 86 93 96 98 100 99 97 94 92 87 82 77 74 72 76 84 92
66 65 73 78 82 93 100 99 99 100 100 99 99 97 97 97 98 99 100 100 100 100 100 100 101 102 102 100 99 100 102 102 96 87 79 75 74 73 71 69 69 72 79 85 87 89 88 88 89 91 93 95 95 95 95 95 93 87 80 77 75 73 71 72 74 76 79 87 95 98 99 100 98 96 96 96 96 93 87 82 80 83 87 93 96
62 62 71 76 82 93 100 99 99 100 100 100 99 99 100 100 100 101 101 100 100 101 101 101 102 102 101 100 101 102 99 92 82 75 74 77 78 75 74 77 82 87 90 92 92 92 93 92 91 91 93 95 96 96 96 97 97 89 78 72 73 73 70 71 76 81 86 94 99 99 99 99 97 96 98 100 99 98 95 91 90 91 93 96 98
58 60 69 75 82 94 100 100 100 100 100 100 99 99 100 101 101 101 100 101 101 101 101 102 102 101 100 101 101 96 87 78 74 76 78 80 79 79 82 90 95 96 96 95 95 95 94 92 91 92 95 97 98 97 96 98 98 95 87 80 76 72 73 80 87 88 90 94 97 98 99 100 99 98 99 100 101 100 96 94 95 96 95 98 100
56 59 68 75 85 96 100 100 100 100 100 100 99 100 101 101 101 101 101 102 102 101 102 103 101 100 101 100 94 83 76 75 79 80 82 85 85 85 88 93 97 97 98 98 97 97 96 93 92 93 95 98 98 98 98 98 98 98 97 94 89 86 89 93 91 88 89 92 93 96 99 100 100 100 100 100 101 99 94 92 95 99 100 100 100
55 58 67 76 87 97 101 99 100 101 100 100 100 100 101 101 102 102 101 101 101 101 102 102 101 101 100 94 82 74 75 82 84 85 88 91 88 88 92 96 97 97 99 99 99 99 98 95 93 93 94 95 97 99 98 98 98 98 99 98 97 95 95 92 88 89 94 95 95 98 101 100 100 101 100 99 100 99 94 90 92 98 100 100 101
54 57 67 78 88 98 101 99 100 101 100 100 100 100 101 102 102 102 101 102 102 102 101 101 101 100 95 84 74 74 81 86 88 92 95 93 88 89 94 97 97 98 99 99 100 101 100 98 96 95 94 94 97 100 100 99 97 93 90 91 93 92 91 91 92 96 100 100 99 100 100 100 100 100 100 99 99 100 98 94 95 98 99 99 100
54 58 68 80 91 99 101 100 100 100 100 100 100 100 101 101 101 101 101 101 102 102 101 101 101 97 87 76 73 79 85 88 90 94 95 92 90 92 92 94 98 101 99 98 99 100 101 100 98 96 94 96 98 100 100 100 98 93 88 91 95 96 95 97 99 100 100 100 100 100 100 100 101 100 100 100 100 99 99 98 99 100 99 99 100
55 61 71 84 95 101 101 100 101 100 100 100 100 100 101 100 100 101 100 101 102 102 101 101 98 90 79 74 78 84 86 88 91 93 92 90 90 91 91 95 100 99 93 91 93 95 97 100 99 95 94 97 98 98 99 100 100 98 93 93 97 100 100 101 101 100 99 98 98 98 97 97 99 99 98 100 101 100 99 99 100 100 100 100 100
57 63 74 88 98 101 101 101 101 100 100 100 100 100 100 100 100 100 100 101 102 101 101 100 93 82 75 76 82 85 86 88 90 91 93 93 91 91 95 98 97 93 89 88 88 89 93 98 97 94 95 98 98 98 99 99 99 100 99 97 97 98 100 101 101 100 99 98 97 95 92 92 95 96 95 98 100 99 98 99 100 100 100 100 100
59 67 80 93 100 101 101 101 101 100 100 100 100 100 100 100 100 100 100 102 102 101 101 98 87 76 76 80 82 83 85 86 86 89 95 96 92 92 97 97 94 90 89 88 87 87 90 94 94 94 97 99 99 100 100 99 99 100 100 100 99 99 100 100 99 99 100 99 98 98 96 95 95 95 94 95 96 97 98 100 100 100 100 100 99